Time,TemperatureF,DewpointF,PressureIn,WindDirection,WindDirectionDegrees,WindSpeedMPH,WindSpeedGustMPH,Humidity,HourlyPrecipIn,Conditions,Clouds,dailyrainin,SoftwareType,DateUTC
2013-03-27 00:02:00,32.0,27.0,-100.00,ENE,65,10.0,10.0,82,-99.99,,,-99.99,,2013-03-27 06:02:00,
2013-03-27 00:11:00,32.0,27.0,-100.00,ENE,65,10.0,11.0,81,-99.99,,,-99.99,,2013-03-27 06:11:00,
2013-03-27 00:22:00,33.0,27.0,-100.00,East,83,9.0,9.0,81,-99.99,,,-99.99,,2013-03-27 06:22:00,
2013-03-27 00:32:00,32.0,27.0,-100.00,East,84,8.0,8.0,81,-99.99,,,-99.99,,2013-03-27 06:32:00,
2013-03-27 00:42:00,32.0,27.0,-100.00,East,86,7.0,9.0,81,-99.99,,,-99.99,,2013-03-27 06:42:00,
2013-03-27 00:52:00,33.0,27.0,-100.00,East,87,7.0,7.0,81,-99.99,,,-99.99,,2013-03-27 06:52:00,
2013-03-27 01:02:00,32.0,27.0,-100.00,ENE,74,10.0,11.0,81,-99.99,,,-99.99,,2013-03-27 07:02:00,
2013-03-27 01:12:00,32.0,27.0,-100.00,ENE,74,10.0,11.0,81,-99.99,,,-99.99,,2013-03-27 07:12:00,
2013-03-27 01:22:00,32.0,27.0,-100.00,ENE,74,10.0,11.0,81,-99.99,,,-99.99,,2013-03-27 07:22:00,
2013-03-27 01:32:00,33.0,27.0,-100.00,East,81,11.0,11.0,79,-99.99,,,-99.99,,2013-03-27 07:32:00,
2013-03-27 01:42:00,32.0,27.0,-100.00,East,87,9.0,10.0,78,-99.99,,,-99.99,,2013-03-27 07:42:00,
2013-03-27 01:53:00,32.0,26.0,-100.00,ENE,69,8.0,9.0,78,-99.99,,,-99.99,,2013-03-27 07:53:00,
2013-03-27 02:02:00,31.0,26.0,-100.00,ENE,72,9.0,11.0,79,-99.99,,,-99.99,,2013-03-27 08:02:00,
2013-03-27 02:12:00,32.0,26.0,-100.00,ENE,67,10.0,10.0,78,-99.99,,,-99.99,,2013-03-27 08:12:00,
2013-03-27 02:22:00,31.0,24.0,-100.00,ENE,61,11.0,13.0,77,-99.99,,,-99.99,,2013-03-27 08:22:00,
2013-03-27 02:32:00,31.0,24.0,-100.00,ENE,61,11.0,13.0,77,-99.99,,,-99.99,,2013-03-27 08:32:00,
2013-03-27 02:43:00,30.0,24.0,-100.00,ENE,73,12.0,15.0,77,-99.99,,,-99.99,,2013-03-27 08:43:00,
2013-03-27 02:52:00,30.0,24.0,-100.00,ENE,74,11.0,13.0,77,-99.99,,,-99.99,,2013-03-27 08:52:00,
2013-03-27 03:01:00,30.0,24.0,-100.00,ENE,67,9.0,11.0,79,-99.99,,,-99.99,,2013-03-27 09:01:00,
2013-03-27 03:11:00,31.0,25.0,-100.00,ENE,69,9.0,10.0,77,-99.99,,,-99.99,,2013-03-27 09:11:00,
2013-03-27 03:22:00,31.0,24.0,-100.00,East,79,10.0,11.0,76,-99.99,,,-99.99,,2013-03-27 09:22:00,
2013-03-27 03:32:00,30.0,24.0,-100.00,East,83,11.0,11.0,77,-99.99,,,-99.99,,2013-03-27 09:32:00,
2013-03-27 03:42:00,30.0,23.0,-100.00,East,82,10.0,11.0,77,-99.99,,,-99.99,,2013-03-27 09:42:00,
2013-03-27 03:52:00,29.0,23.0,-100.00,ENE,64,8.0,10.0,76,-99.99,,,-99.99,,2013-03-27 09:52:00,
2013-03-27 04:02:00,29.0,23.0,-100.00,ENE,64,8.0,10.0,76,-99.99,,,-99.99,,2013-03-27 10:02:00,
2013-03-27 04:12:00,30.0,23.0,-100.00,East,81,11.0,11.0,74,-99.99,,,-99.99,,2013-03-27 10:12:00,
2013-03-27 04:22:00,30.0,23.0,-100.00,East,81,11.0,11.0,74,-99.99,,,-99.99,,2013-03-27 10:22:00,
2013-03-27 04:32:00,29.0,22.0,-100.00,ENE,77,13.0,13.0,76,-99.99,,,-99.99,,2013-03-27 10:32:00,
2013-03-27 04:42:00,29.0,22.0,-100.00,ENE,77,13.0,13.0,76,-99.99,,,-99.99,,2013-03-27 10:42:00,
2013-03-27 04:52:00,29.0,23.0,-100.00,ENE,72,12.0,13.0,76,-99.99,,,-99.99,,2013-03-27 10:52:00,
2013-03-27 05:02:00,29.0,22.0,-100.00,ENE,69,10.0,12.0,74,-99.99,,,-99.99,,2013-03-27 11:02:00,
2013-03-27 05:11:00,29.0,22.0,-100.00,East,79,8.0,9.0,73,-99.99,,,-99.99,,2013-03-27 11:11:00,
2013-03-27 05:22:00,29.0,22.0,-100.00,East,82,9.0,11.0,73,-99.99,,,-99.99,,2013-03-27 11:22:00,
2013-03-27 05:32:00,29.0,22.0,-100.00,ENE,68,8.0,9.0,74,-99.99,,,-99.99,,2013-03-27 11:32:00,
2013-03-27 05:42:00,29.0,22.0,-100.00,ENE,68,8.0,9.0,74,-99.99,,,-99.99,,2013-03-27 11:42:00,
2013-03-27 05:52:00,30.0,22.0,-100.00,ENE,78,11.0,11.0,70,-99.99,,,-99.99,,2013-03-27 11:52:00,
2013-03-27 06:02:00,30.0,22.0,-100.00,East,82,10.0,11.0,70,-99.99,,,-99.99,,2013-03-27 12:02:00,
2013-03-27 06:11:00,29.0,21.0,-100.00,ENE,66,9.0,10.0,70,-99.99,,,-99.99,,2013-03-27 12:11:00,
2013-03-27 06:22:00,29.0,21.0,-100.00,ENE,66,9.0,10.0,70,-99.99,,,-99.99,,2013-03-27 12:22:00,
2013-03-27 06:32:00,29.0,21.0,-100.00,ENE,78,11.0,12.0,71,-99.99,,,-99.99,,2013-03-27 12:32:00,
2013-03-27 06:42:00,29.0,21.0,-100.00,East,82,8.0,11.0,70,-99.99,,,-99.99,,2013-03-27 12:42:00,
2013-03-27 06:51:00,28.0,21.0,-100.00,ENE,66,9.0,11.0,72,-99.99,,,-99.99,,2013-03-27 12:51:00,
2013-03-27 07:02:00,28.0,20.0,-100.00,ENE,71,6.0,11.0,73,-99.99,,,-99.99,,2013-03-27 13:02:00,
2013-03-27 07:11:00,28.0,20.0,-100.00,ENE,71,6.0,11.0,73,-99.99,,,-99.99,,2013-03-27 13:11:00,
2013-03-27 07:22:00,29.0,21.0,-100.00,East,90,12.0,12.0,72,-99.99,,,-99.99,,2013-03-27 13:22:00,
2013-03-27 07:32:00,28.0,21.0,-100.00,ENE,74,9.0,9.0,71,-99.99,,,-99.99,,2013-03-27 13:32:00,
2013-03-27 07:41:00,28.0,21.0,-100.00,ENE,74,9.0,9.0,71,-99.99,,,-99.99,,2013-03-27 13:41:00,
2013-03-27 07:52:00,29.0,21.0,-100.00,ENE,61,10.0,11.0,70,-99.99,,,-99.99,,2013-03-27 13:52:00,
2013-03-27 08:02:00,29.0,21.0,-100.00,ENE,60,11.0,13.0,70,-99.99,,,-99.99,,2013-03-27 14:02:00,
2013-03-27 08:11:00,29.0,20.0,-100.00,ENE,67,10.0,10.0,70,-99.99,,,-99.99,,2013-03-27 14:11:00,
2013-03-27 08:22:00,29.0,20.0,-100.00,ENE,67,10.0,10.0,70,-99.99,,,-99.99,,2013-03-27 14:22:00,
2013-03-27 08:32:00,29.0,21.0,-100.00,ENE,61,10.0,11.0,69,-99.99,,,-99.99,,2013-03-27 14:32:00,
2013-03-27 08:42:00,31.0,21.0,-100.00,ENE,64,11.0,12.0,67,-99.99,,,-99.99,,2013-03-27 14:42:00,
2013-03-27 08:51:00,32.0,21.0,-100.00,ENE,69,10.0,12.0,64,-99.99,,,-99.99,,2013-03-27 14:51:00,
2013-03-27 09:02:00,32.0,22.0,-100.00,ENE,65,10.0,11.0,65,-99.99,,,-99.99,,2013-03-27 15:02:00,
2013-03-27 09:11:00,32.0,22.0,-100.00,East,85,9.0,10.0,65,-99.99,,,-99.99,,2013-03-27 15:11:00,
2013-03-27 09:22:00,33.0,22.0,-100.00,East,83,10.0,10.0,63,-99.99,,,-99.99,,2013-03-27 15:22:00,
2013-03-27 09:32:00,34.0,22.0,-100.00,East,92,9.0,10.0,60,-99.99,,,-99.99,,2013-03-27 15:32:00,
2013-03-27 09:42:00,34.0,22.0,-100.00,East,82,9.0,9.0,61,-99.99,,,-99.99,,2013-03-27 15:42:00,
2013-03-27 09:52:00,35.0,22.0,-100.00,East,86,9.0,11.0,58,-99.99,,,-99.99,,2013-03-27 15:52:00,
2013-03-27 10:02:00,37.0,21.0,-100.00,East,88,11.0,11.0,52,-99.99,,,-99.99,,2013-03-27 16:02:00,
2013-03-27 10:12:00,38.0,23.0,-100.00,East,83,9.0,12.0,53,-99.99,,,-99.99,,2013-03-27 16:12:00,
2013-03-27 10:22:00,38.0,23.0,-100.00,East,83,9.0,12.0,53,-99.99,,,-99.99,,2013-03-27 16:22:00,
2013-03-27 10:32:00,40.0,23.0,-100.00,SSE,157,6.0,9.0,49,-99.99,,,-99.99,,2013-03-27 16:32:00,
2013-03-27 10:42:00,41.0,22.0,-100.00,SE,137,3.0,9.0,45,-99.99,,,-99.99,,2013-03-27 16:42:00,
2013-03-27 10:52:00,41.0,22.0,-100.00,SE,137,3.0,9.0,45,-99.99,,,-99.99,,2013-03-27 16:52:00,
2013-03-27 11:02:00,41.0,22.0,-100.00,SE,137,3.0,9.0,45,-99.99,,,-99.99,,2013-03-27 17:02:00,
2013-03-27 11:11:00,44.0,23.0,-100.00,SSE,161,4.0,7.0,43,-99.99,,,-99.99,,2013-03-27 17:11:00,
2013-03-27 11:22:00,43.0,24.0,-100.00,SW,229,6.0,8.0,46,-99.99,,,-99.99,,2013-03-27 17:22:00,
2013-03-27 11:32:00,44.0,25.0,-100.00,SSW,194,6.0,8.0,46,-99.99,,,-99.99,,2013-03-27 17:32:00,
2013-03-27 11:44:00,45.0,25.0,-100.00,SSW,208,8.0,10.0,44,-99.99,,,-99.99,,2013-03-27 17:44:00,
2013-03-27 11:52:00,46.0,25.0,-100.00,SSW,204,7.0,10.0,44,-99.99,,,-99.99,,2013-03-27 17:52:00,
2013-03-27 12:02:00,45.0,23.0,-100.00,SSW,200,6.0,9.0,41,-99.99,,,-99.99,,2013-03-27 18:02:00,
2013-03-27 12:12:00,46.0,22.0,-100.00,SSW,197,8.0,10.0,39,-99.99,,,-99.99,,2013-03-27 18:12:00,
2013-03-27 12:22:00,46.0,22.0,-100.00,SSW,197,8.0,10.0,39,-99.99,,,-99.99,,2013-03-27 18:22:00,
2013-03-27 12:32:00,48.0,21.0,-100.00,South,190,6.0,10.0,35,-99.99,,,-99.99,,2013-03-27 18:32:00,
2013-03-27 12:42:00,47.0,19.0,-100.00,ESE,115,3.0,9.0,31,-99.99,,,-99.99,,2013-03-27 18:42:00,
2013-03-27 12:52:00,50.0,21.0,-100.00,South,177,9.0,12.0,32,-99.99,,,-99.99,,2013-03-27 18:52:00,
2013-03-27 13:02:00,50.0,22.0,-100.00,SSW,192,9.0,11.0,32,-99.99,,,-99.99,,2013-03-27 19:02:00,
2013-03-27 13:12:00,50.0,24.0,-100.00,South,181,8.0,14.0,35,-99.99,,,-99.99,,2013-03-27 19:12:00,
2013-03-27 13:21:00,49.0,21.0,-100.00,SW,232,8.0,17.0,31,-99.99,,,-99.99,,2013-03-27 19:21:00,
2013-03-27 13:32:00,51.0,22.0,-100.00,SSW,197,10.0,14.0,31,-99.99,,,-99.99,,2013-03-27 19:32:00,
2013-03-27 13:42:00,51.0,20.0,-100.00,South,170,10.0,15.0,29,-99.99,,,-99.99,,2013-03-27 19:42:00,
2013-03-27 13:52:00,49.0,20.0,-100.00,West,264,6.0,16.0,31,-99.99,,,-99.99,,2013-03-27 19:52:00,
2013-03-27 14:02:00,51.0,20.0,-100.00,South,190,8.0,14.0,30,-99.99,,,-99.99,,2013-03-27 20:02:00,
2013-03-27 14:12:00,50.0,19.0,-100.00,West,278,9.0,13.0,28,-99.99,,,-99.99,,2013-03-27 20:12:00,
2013-03-27 14:22:00,50.0,19.0,-100.00,West,262,9.0,11.0,29,-99.99,,,-99.99,,2013-03-27 20:22:00,
2013-03-27 14:32:00,51.0,19.0,-100.00,WNW,283,9.0,11.0,28,-99.99,,,-99.99,,2013-03-27 20:32:00,
2013-03-27 14:42:00,50.0,19.0,-100.00,WNW,299,2.0,13.0,28,-99.99,,,-99.99,,2013-03-27 20:42:00,
2013-03-27 14:52:00,51.0,21.0,-100.00,NW,312,6.0,10.0,30,-99.99,,,-99.99,,2013-03-27 20:52:00,
2013-03-27 15:02:00,51.0,20.0,-100.00,WSW,239,11.0,17.0,28,-99.99,,,-99.99,,2013-03-27 21:02:00,
2013-03-27 15:12:00,50.0,19.0,-100.00,NW,306,8.0,14.0,29,-99.99,,,-99.99,,2013-03-27 21:12:00,
2013-03-27 15:22:00,50.0,19.0,-100.00,WNW,303,4.0,9.0,28,-99.99,,,-99.99,,2013-03-27 21:22:00,
2013-03-27 15:32:00,52.0,20.0,-100.00,SSW,213,5.0,12.0,28,-99.99,,,-99.99,,2013-03-27 21:32:00,
2013-03-27 15:42:00,54.0,20.0,-100.00,South,175,8.0,13.0,26,-99.99,,,-99.99,,2013-03-27 21:42:00,
2013-03-27 15:52:00,52.0,18.0,-100.00,South,182,4.0,16.0,25,-99.99,,,-99.99,,2013-03-27 21:52:00,
2013-03-27 16:02:00,53.0,19.0,-100.00,South,189,4.0,14.0,25,-99.99,,,-99.99,,2013-03-27 22:02:00,
2013-03-27 16:12:00,52.0,19.0,-100.00,West,269,11.0,13.0,25,-99.99,,,-99.99,,2013-03-27 22:12:00,
2013-03-27 16:23:00,52.0,17.0,-100.00,WNW,282,4.0,10.0,25,-99.99,,,-99.99,,2013-03-27 22:23:00,
2013-03-27 16:32:00,52.0,17.0,-100.00,WSW,254,7.0,11.0,24,-99.99,,,-99.99,,2013-03-27 22:32:00,
2013-03-27 16:42:00,52.0,15.0,-100.00,West,268,10.0,17.0,22,-99.99,,,-99.99,,2013-03-27 22:42:00,
2013-03-27 16:52:00,52.0,13.0,-100.00,WSW,256,10.0,11.0,20,-99.99,,,-99.99,,2013-03-27 22:52:00,
2013-03-27 17:02:00,53.0,15.0,-100.00,SSW,211,12.0,17.0,22,-99.99,,,-99.99,,2013-03-27 23:02:00,
2013-03-27 17:11:00,54.0,14.0,-100.00,SSW,212,16.0,20.0,19,-99.99,,,-99.99,,2013-03-27 23:11:00,
2013-03-27 17:22:00,54.0,14.0,-100.00,SSW,205,18.0,22.0,19,-99.99,,,-99.99,,2013-03-27 23:22:00,
2013-03-27 17:32:00,54.0,15.0,-100.00,SSW,202,16.0,21.0,20,-99.99,,,-99.99,,2013-03-27 23:32:00,
2013-03-27 17:42:00,52.0,15.0,-100.00,South,191,9.0,16.0,21,-99.99,,,-99.99,,2013-03-27 23:42:00,
2013-03-27 17:52:00,52.0,15.0,-100.00,South,191,9.0,16.0,21,-99.99,,,-99.99,,2013-03-27 23:52:00,
2013-03-27 18:02:00,52.0,14.0,-100.00,SSW,198,13.0,17.0,20,-99.99,,,-99.99,,2013-03-28 00:02:00,
2013-03-27 18:12:00,52.0,14.0,-100.00,SSW,211,7.0,15.0,21,-99.99,,,-99.99,,2013-03-28 00:12:00,
2013-03-27 18:21:00,52.0,13.0,-100.00,SSW,198,13.0,18.0,21,-99.99,,,-99.99,,2013-03-28 00:21:00,
2013-03-27 18:32:00,52.0,14.0,-100.00,WSW,246,14.0,20.0,21,-99.99,,,-99.99,,2013-03-28 00:32:00,
2013-03-27 18:42:00,52.0,14.0,-100.00,SW,220,6.0,10.0,21,-99.99,,,-99.99,,2013-03-28 00:42:00,
2013-03-27 18:52:00,51.0,15.0,-100.00,WSW,240,9.0,11.0,23,-99.99,,,-99.99,,2013-03-28 00:52:00,
2013-03-27 19:01:00,51.0,15.0,-100.00,WSW,240,9.0,11.0,23,-99.99,,,-99.99,,2013-03-28 01:01:00,
2013-03-27 19:11:00,52.0,14.0,-100.00,WSW,238,10.0,12.0,21,-99.99,,,-99.99,,2013-03-28 01:11:00,
2013-03-27 19:21:00,52.0,15.0,-100.00,SW,215,5.0,12.0,22,-99.99,,,-99.99,,2013-03-28 01:21:00,
2013-03-27 19:32:00,52.0,15.0,-100.00,SW,215,5.0,12.0,22,-99.99,,,-99.99,,2013-03-28 01:32:00,
2013-03-27 19:42:00,52.0,15.0,-100.00,WSW,246,3.0,6.0,22,-99.99,,,-99.99,,2013-03-28 01:42:00,
2013-03-27 19:52:00,50.0,15.0,-100.00,NW,307,2.0,5.0,24,-99.99,,,-99.99,,2013-03-28 01:52:00,
2013-03-27 20:02:00,47.0,15.0,-100.00,NNE,13,2.0,3.0,27,-99.99,,,-99.99,,2013-03-28 02:02:00,
2013-03-27 20:12:00,43.0,15.0,-100.00,North,10,2.0,2.0,32,-99.99,,,-99.99,,2013-03-28 02:12:00,
2013-03-27 20:22:00,43.0,15.0,-100.00,North,10,2.0,2.0,32,-99.99,,,-99.99,,2013-03-28 02:22:00,
2013-03-27 20:32:00,42.0,15.0,-100.00,North,11,2.0,2.0,32,-99.99,,,-99.99,,2013-03-28 02:32:00,
2013-03-27 20:42:00,42.0,15.0,-100.00,North,11,2.0,2.0,32,-99.99,,,-99.99,,2013-03-28 02:42:00,
2013-03-27 20:51:00,42.0,15.0,-100.00,North,11,2.0,2.0,32,-99.99,,,-99.99,,2013-03-28 02:51:00,
2013-03-27 21:02:00,41.0,15.0,-100.00,North,3,6.0,6.0,33,-99.99,,,-99.99,,2013-03-28 03:02:00,
2013-03-27 21:12:00,43.0,17.0,-100.00,North,9,10.0,11.0,34,-99.99,,,-99.99,,2013-03-28 03:12:00,
2013-03-27 21:21:00,44.0,16.0,-100.00,North,6,8.0,9.0,32,-99.99,,,-99.99,,2013-03-28 03:21:00,
2013-03-27 21:33:00,44.0,16.0,-100.00,North,11,6.0,8.0,31,-99.99,,,-99.99,,2013-03-28 03:33:00,
2013-03-27 21:42:00,43.0,19.0,-100.00,ENE,69,10.0,11.0,37,-99.99,,,-99.99,,2013-03-28 03:42:00,
2013-03-27 21:52:00,43.0,19.0,-100.00,ENE,69,10.0,11.0,37,-99.99,,,-99.99,,2013-03-28 03:52:00,
2013-03-27 22:02:00,42.0,18.0,-100.00,ENE,75,10.0,11.0,36,-99.99,,,-99.99,,2013-03-28 04:02:00,
2013-03-27 22:12:00,42.0,17.0,-100.00,East,80,11.0,11.0,35,-99.99,,,-99.99,,2013-03-28 04:12:00,
2013-03-27 22:22:00,42.0,18.0,-100.00,East,82,13.0,13.0,37,-99.99,,,-99.99,,2013-03-28 04:22:00,
2013-03-27 22:32:00,41.0,17.0,-100.00,ENE,74,12.0,12.0,38,-99.99,,,-99.99,,2013-03-28 04:32:00,
2013-03-27 22:42:00,41.0,18.0,-100.00,ENE,60,11.0,12.0,38,-99.99,,,-99.99,,2013-03-28 04:42:00,
2013-03-27 22:52:00,41.0,17.0,-100.00,ENE,58,10.0,11.0,38,-99.99,,,-99.99,,2013-03-28 04:52:00,
2013-03-27 23:02:00,41.0,17.0,-100.00,ENE,58,10.0,11.0,38,-99.99,,,-99.99,,2013-03-28 05:02:00,
2013-03-27 23:12:00,41.0,17.0,-100.00,NE,43,10.0,10.0,38,-99.99,,,-99.99,,2013-03-28 05:12:00,
2013-03-27 23:22:00,41.0,17.0,-100.00,NE,43,10.0,10.0,38,-99.99,,,-99.99,,2013-03-28 05:22:00,
2013-03-27 23:31:00,39.0,18.0,-100.00,NE,53,9.0,10.0,41,-99.99,,,-99.99,,2013-03-28 05:31:00,
2013-03-27 23:42:00,39.0,17.0,-100.00,ENE,62,14.0,14.0,39,-99.99,,,-99.99,,2013-03-28 05:42:00,
2013-03-27 23:51:00,39.0,17.0,-100.00,ENE,70,14.0,14.0,40,-99.99,,,-99.99,,2013-03-28 05:51:00,